Hermiston, OR

2:55 AM PDT on September 25, 2017 (GMT -0700)
Hermiston Municipal

Weather History for KHRI - February, 2014

Change the Weather History Date:

Tuesday, February 18, 2014

  Actual Average Record
Temperature  
Mean Temperature 49 °F 38 °F  
Max Temperature 62 °F 49 °F 71 °F (1930)
Min Temperature 36 °F 27 °F 3 °F (2006)
Degree Days  
Heating Degree Days 16    
Moisture  
Dew Point 36 °F    
Average Humidity 67    
Maximum Humidity 89    
Minimum Humidity 37    
Precipitation  
Precipitation 0.04 in 0.02 in 0.34 in (1983)
Month to date precipitation 0.68  
Year to date precipitation 2.02  
Sea Level Pressure  
Sea Level Pressure 29.86 in    
Wind  
Wind Speed 11 mph (SSW)    
Max Wind Speed 25 mph    
Max Gust Speed 37 mph    
Visibility 10 miles    
Events Rain    
T = Trace of Precipitation, MM = Missing Value Source: NWS Daily Summary

Daily Weather History Graph

Daily Weather History Graph

Search for Another Location

Airport or City:

Trip Planner

Search our weather history database for the weather conditions in past years. The results will help you decide how hot, cold, wet, or windy it might be!

Date:

Astronomy

Feb. 18, 2014 Rise Set
Actual Time 6:54 AM PST 5:28 PM PST
Civil Twilight 6:23 AM PST 5:58 PM PST
Nautical Twilight 5:49 AM PST 6:33 PM PST
Astronomical Twilight 5:14 AM PST 7:07 PM PST
Moon 9:41 PM PST (2/18) 8:16 AM PST (2/18)
Length of Visible Light 11h 34m
Length of Day
10h 33m
Waning Gibbous, 86% of the Moon is Illuminated
Feb 18
Waning Gibbous
Feb 22
Last Quarter
Mar 1
New
Mar 8
First Quarter
Mar 16
Full

Hourly Weather History & Observations

Time (PST) Temp. Windchill Dew Point Humidity Pressure Visibility Wind Dir Wind Speed Gust Speed Precip Events Conditions
12:53 AM 41.0 °F 36.4 °F 35.1 °F 79% 30.02 in 10.0 mi South 6.9 mph - N/A   Scattered Clouds
1:53 AM 37.0 °F 34.5 °F 33.1 °F 86% 30.01 in 10.0 mi SE 3.5 mph - N/A   Partly Cloudy
2:53 AM 36.0 °F 30.3 °F 30.9 °F 82% 30.00 in 10.0 mi SSE 6.9 mph - N/A   Clear
3:53 AM 36.0 °F 29.6 °F 33.1 °F 89% 30.00 in 10.0 mi ESE 8.1 mph - N/A   Overcast
4:53 AM 37.9 °F 32.1 °F 33.1 °F 83% 30.00 in 10.0 mi SSE 8.1 mph - N/A   Overcast
5:53 AM 39.0 °F 36.8 °F 33.1 °F 79% 30.00 in 10.0 mi West 3.5 mph - N/A   Overcast
6:53 AM 39.9 °F 34.5 °F 33.1 °F 77% 30.01 in 10.0 mi SW 8.1 mph - N/A   Clear
7:53 AM 41.0 °F 36.4 °F 34.0 °F 76% 30.01 in 10.0 mi South 6.9 mph - N/A   Clear
8:53 AM 45.0 °F 41.8 °F 35.1 °F 68% 29.98 in 10.0 mi SE 5.8 mph - N/A   Clear
9:53 AM 50.0 °F - 36.0 °F 59% 29.93 in 10.0 mi SE 9.2 mph - N/A   Scattered Clouds
10:53 AM 54.0 °F - 35.1 °F 49% 29.88 in 10.0 mi SSE 13.8 mph - N/A   Mostly Cloudy
11:53 AM 55.9 °F - 36.0 °F 47% 29.81 in 10.0 mi ESE 6.9 mph - N/A   Overcast
12:19 PM 62.1 °F - 35.1 °F 37% 29.78 in 10.0 mi SSW 18.4 mph - N/A   Overcast
12:53 PM 61.0 °F - 35.1 °F 38% 29.75 in 10.0 mi SSW 17.3 mph 24.2 mph N/A   Overcast
1:53 PM 57.9 °F - 39.9 °F 51% 29.70 in 10.0 mi SSW 13.8 mph - 0.00 in Rain Light Rain
2:53 PM 60.1 °F - 37.9 °F 44% 29.64 in 10.0 mi SSW 17.3 mph 26.5 mph 0.00 in Rain Light Rain
3:53 PM 55.9 °F - 42.1 °F 60% 29.64 in 10.0 mi WSW 20.7 mph 31.1 mph 0.01 in Rain Light Rain
4:53 PM 50.0 °F - 44.1 °F 80% 29.68 in 10.0 mi West 19.6 mph - 0.03 in Rain Light Rain
5:53 PM 48.9 °F - 39.9 °F 71% 29.72 in 10.0 mi West 25.3 mph 36.8 mph 0.00 in   Overcast
6:53 PM 46.9 °F - 37.9 °F 71% 29.76 in 10.0 mi West 21.9 mph 31.1 mph N/A   Overcast
7:53 PM 46.0 °F 38.0 °F 37.0 °F 71% 29.81 in 10.0 mi West 21.9 mph 34.5 mph N/A   Partly Cloudy
8:53 PM 45.0 °F 36.2 °F 34.0 °F 65% 29.83 in 10.0 mi West 24.2 mph 33.4 mph N/A   Clear
9:53 PM 42.1 °F 33.9 °F 33.1 °F 70% 29.86 in 10.0 mi SW 17.3 mph 26.5 mph N/A   Clear
11:53 PM 39.9 °F 31.1 °F 30.0 °F 68% 29.90 in 10.0 mi WSW 17.3 mph - N/A   Clear